Location: ???? ????
(41.4149°N, 22.8816°E)
Time: 12:11:41
(UTC+00:00)

Meteor 1-11 Rocket - Pass Details

Date: 14 July 2020
Orbit: 832 x 915 km, 81.2° (Epoch: 09 August)

Event Time Altitude Azimuth Distance (km) Brightness Sun altitude
Exits shadow 00:21:46 33° 155° (SSE) 1,377 4.5 -22.2°
Maximum altitude 00:24:03 55° 95° (E) 999 4.1 -22.0°
Drops below altitude 10° 00:29:25 10° 19° (NNE) 2,449 7.2 -21.5°
Sets 00:31:52 0° 15° (NNE) 3,389 8.2 -21.3°
